{"data":{"norad_id":58188,"epoch":"2026-05-25T04:20:41.426592Z","epoch_age_seconds":62606,"freshness":"FRESH","line1":"1 58188U 23167P   26145.18103503  .00000311  00000+0  20818-4 0  9995","line2":"2 58188  43.0061  71.4000 0001306 290.7427  69.3285 15.27571172142681","mean_motion":15.27571172,"eccentricity":0.0001306,"inclination_deg":43.0061,"raan_deg":71.4,"arg_perigee_deg":290.7427,"mean_anomaly_deg":69.3285,"bstar":2.0818e-5,"rev_number":14268,"period_min":94.267293491449,"perigee_km":482.17945601835,"apogee_km":483.97160473128,"semimajor_km":6861.2125303748,"source":"CELESTRAK","updated_at":"2026-05-25T13:38:18.571476Z"}}